sat.trackr.live / text

‹ back to catalog

STARLINK-31947

NORAD 59835 · 2024-097A

PAYLOAD ACTIVE UNKNOWN

§ Identity

Operator
Country
US
Launch date
2024-05-23
Launch site
AFETR
Launch vehicle
Mass (kg)
RCS (m²)

Purposes: comms

External: N2YO · Heavens-Above · Gunter

§ Orbital elements

Epoch: 2026-09-21T16:20:23.321472Z

Period
94.27 min
Inclination
43.0052°
Eccentricity
0.0002695
Mean motion
15.27586714 rev/d
Perigee alt
481.2 km
Apogee alt
484.9 km
Semi-major
6,861.2 km
B*
-9.7532e-5
RAAN
247.2947°
Arg perigee
275.3264°
Mean anomaly
84.7280°
Rev number
13,189

§ Raw data

STARLINK-319471 59835U 24097A   26264.68082548 -.00002946  00000+0 -97532-4 0  99952 59835  43.0052 247.2947 0002695 275.3264  84.7280 15.27586714131899

JSON: /api/v1/satellites/59835 · /tle

For live sub-satellite position, see the globe view (requires WebGL).

§ Visibility from observer

Set your observer location to see the next 7 days of passes ≥ 10°. The values pass through the URL so the page stays shareable.

No JS? Fill the form by hand. The geolocation button needs JavaScript.